When you browse on this site, cookies collect data to enhance your experience and personalize the content and advertising you see.
Visit our Privacy Policy to learn more. By continuing to use the site, you agree to this use of cookies and data.
  • In Latvia
  • List of Countries
  • For 7 days
  • Water Temperature
  • Satellite Maps
  • Weather Map
  • Weather Widgets
  • user-avatar
    Login

    Hourly Weather Gulbene

    Today, 19 June, Wednesday

    Time Temperature Precipitation Wind Pressure Humidity
    00:00 +13°C° 0 mm 1 mps 751 mmHg 82%
    01:00 +12°C° 0 mm 1 mps 751 mmHg 83%
    02:00 +12°C° 0 mm 1 mps 752 mmHg 82%
    03:00 +12°C° 0 mm 1 mps 752 mmHg 80%
    04:00 +13°C° 0 mm 1 mps 752 mmHg 78%
    05:00 +13°C° 0 mm 1 mps 752 mmHg 76%
    06:00 +16°C° 0 mm 1 mps 752 mmHg 69%
    07:00 +20°C° 0 mm 1 mps 752 mmHg 62%
    08:00 +23°C° 0 mm 1 mps 752 mmHg 54%
    09:00 +24°C° 0 mm 1 mps 751 mmHg 52%
    10:00 +25°C° 0 mm 1 mps 751 mmHg 49%
    11:00 +26°C° 0 mm 2 mps 751 mmHg 47%
    12:00 +27°C° 0 mm 2 mps 751 mmHg 45%
    13:00 +27°C° 0 mm 2 mps 751 mmHg 43%
    14:00 +28°C° 0 mm 3 mps 750 mmHg 42%
    15:00 +28°C° 0 mm 2 mps 750 mmHg 43%
    16:00 +27°C° 0 mm 2 mps 750 mmHg 44%
    17:00 +27°C° 0 mm 2 mps 750 mmHg 45%
    18:00 +25°C° 0 mm 2 mps 749 mmHg 54%
    19:00 +24°C° 0 mm 2 mps 749 mmHg 62%
    20:00 +22°C° 0 mm 1 mps 749 mmHg 70%
    21:00 +21°C° 0 mm 1 mps 749 mmHg 74%
    22:00 +19°C° 0 mm 1 mps 749 mmHg 78%
    23:00 +18°C° 0 mm 1 mps 749 mmHg 82%

    Tomorrow, 20 June, Thursday

    Time Temperature Precipitation Wind Pressure Humidity
    00:00 +18°C° 0 mm 1 mps 749 mmHg 85%
    01:00 +16°C° 0 mm 1 mps 749 mmHg 88%
    02:00 +16°C° 0 mm 1 mps 749 mmHg 91%
    03:00 +16°C° 0 mm 1 mps 749 mmHg 90%
    04:00 +16°C° 0 mm 1 mps 749 mmHg 89%
    05:00 +17°C° 0 mm 2 mps 749 mmHg 88%
    06:00 +19°C° 0 mm 2 mps 748 mmHg 81%
    07:00 +21°C° 0 mm 2 mps 748 mmHg 73%
    08:00 +24°C° 0 mm 2 mps 748 mmHg 65%
    09:00 +24°C° 0.2 mm 3 mps 748 mmHg 65%
    10:00 +25°C° 0.2 mm 3 mps 748 mmHg 66%
    11:00 +26°C° 0.2 mm 4 mps 748 mmHg 66%
    12:00 +26°C° 1.2 mm 4 mps 747 mmHg 69%
    13:00 +26°C° 1.2 mm 4 mps 747 mmHg 72%
    14:00 +26°C° 1.2 mm 3 mps 747 mmHg 75%
    15:00 +26°C° 0.6 mm 4 mps 746 mmHg 74%
    16:00 +25°C° 0.6 mm 4 mps 746 mmHg 73%
    17:00 +25°C° 0.6 mm 4 mps 746 mmHg 72%
    18:00 +24°C° 0.1 mm 3 mps 746 mmHg 75%
    19:00 +24°C° 0.1 mm 3 mps 746 mmHg 79%
    20:00 +22°C° 0.1 mm 3 mps 746 mmHg 83%
    21:00 +21°C° 0 mm 3 mps 746 mmHg 86%
    22:00 +20°C° 0 mm 3 mps 746 mmHg 89%
    23:00 +20°C° 0 mm 3 mps 746 mmHg 93%

    Day after tomorrow, 21 June, Friday

    Time Temperature Precipitation Wind Pressure Humidity
    00:00 +19°C° 0 mm 2 mps 746 mmHg 95%
    01:00 +19°C° 0 mm 2 mps 746 mmHg 96%
    02:00 +18°C° 0 mm 2 mps 746 mmHg 98%
    03:00 +18°C° 0 mm 2 mps 746 mmHg 98%
    04:00 +18°C° 0 mm 2 mps 746 mmHg 98%
    05:00 +19°C° 0 mm 1 mps 746 mmHg 98%
    06:00 +21°C° 0 mm 1 mps 746 mmHg 89%
    07:00 +23°C° 0 mm 1 mps 747 mmHg 81%
    08:00 +25°C° 0 mm 1 mps 747 mmHg 72%
    09:00 +26°C° 0 mm 1 mps 747 mmHg 65%
    10:00 +28°C° 0 mm 1 mps 747 mmHg 58%
    11:00 +29°C° 0 mm 2 mps 747 mmHg 51%
    12:00 +29°C° 0 mm 2 mps 746 mmHg 49%
    13:00 +30°C° 0 mm 2 mps 746 mmHg 47%
    14:00 +30°C° 0 mm 3 mps 746 mmHg 45%
    15:00 +30°C° 0 mm 3 mps 746 mmHg 47%
    16:00 +29°C° 0 mm 3 mps 746 mmHg 48%
    17:00 +29°C° 0 mm 2 mps 746 mmHg 50%
    18:00 +27°C° 0.2 mm 2 mps 746 mmHg 61%
    19:00 +25°C° 0.2 mm 2 mps 746 mmHg 73%
    20:00 +23°C° 0.2 mm 2 mps 746 mmHg 84%
    21:00 +21°C° 0.2 mm 2 mps 747 mmHg 87%
    22:00 +19°C° 0.2 mm 2 mps 747 mmHg 91%
    23:00 +18°C° 0.2 mm 2 mps 747 mmHg 94%

    22 June, Saturday

    Time Temperature Precipitation Wind Pressure Humidity
    00:00 +17°C° 0 mm 2 mps 747 mmHg 95%
    01:00 +16°C° 0 mm 2 mps 748 mmHg 96%
    02:00 +16°C° 0 mm 2 mps 748 mmHg 97%
    03:00 +15°C° 0 mm 2 mps 748 mmHg 94%
    04:00 +15°C° 0 mm 2 mps 749 mmHg 92%
    05:00 +15°C° 0 mm 2 mps 749 mmHg 89%
    06:00 +16°C° 0 mm 2 mps 749 mmHg 79%
    07:00 +18°C° 0 mm 2 mps 750 mmHg 68%
    08:00 +20°C° 0 mm 2 mps 750 mmHg 57%
    09:00 +21°C° 0 mm 2 mps 750 mmHg 52%
    10:00 +22°C° 0 mm 3 mps 751 mmHg 46%
    11:00 +25°C° 0 mm 3 mps 751 mmHg 41%
    12:00 +25°C° 0 mm 4 mps 751 mmHg 41%
    13:00 +25°C° 0 mm 4 mps 751 mmHg 41%
    14:00 +25°C° 0 mm 5 mps 751 mmHg 41%
    15:00 +23°C° 0 mm 4 mps 751 mmHg 40%
    16:00 +22°C° 0 mm 4 mps 752 mmHg 39%
    17:00 +21°C° 0 mm 4 mps 752 mmHg 38%
    18:00 +19°C° 0 mm 4 mps 752 mmHg 46%
    19:00 +17°C° 0 mm 3 mps 752 mmHg 54%
    20:00 +15°C° 0 mm 2 mps 753 mmHg 62%
    21:00 +14°C° 0 mm 2 mps 753 mmHg 69%
    22:00 +13°C° 0 mm 2 mps 754 mmHg 77%
    23:00 +10°C° 0 mm 2 mps 754 mmHg 84%

    23 June, Sunday

    Time Temperature Precipitation Wind Pressure Humidity
    00:00 +9°C° 0 mm 2 mps 754 mmHg 87%
    01:00 +9°C° 0 mm 2 mps 755 mmHg 89%
    02:00 +8°C° 0 mm 2 mps 755 mmHg 92%
    03:00 +12°C° 0 mm 2 mps 753 mmHg 94%
    04:00 +13°C° 0 mm 2 mps 753 mmHg 93%
    05:00 +13°C° 0 mm 2 mps 753 mmHg 92%
    06:00 +15°C° 0 mm 2 mps 753 mmHg 84%
    07:00 +16°C° 0 mm 2 mps 753 mmHg 77%
    08:00 +18°C° 0 mm 2 mps 753 mmHg 69%
    09:00 +19°C° 0 mm 2 mps 753 mmHg 64%
    10:00 +21°C° 0 mm 2 mps 753 mmHg 60%
    11:00 +23°C° 0 mm 2 mps 753 mmHg 55%
    12:00 +24°C° 0 mm 2 mps 752 mmHg 52%
    13:00 +24°C° 0 mm 2 mps 752 mmHg 50%
    14:00 +25°C° 0 mm 2 mps 752 mmHg 47%
    15:00 +23°C° 0.1 mm 2 mps 751 mmHg 57%
    16:00 +21°C° 0.1 mm 1 mps 751 mmHg 68%
    17:00 +20°C° 0.1 mm 1 mps 750 mmHg 78%
    18:00 +18°C° 0.5 mm 2 mps 750 mmHg 84%
    19:00 +17°C° 0.5 mm 2 mps 750 mmHg 90%
    20:00 +16°C° 0.5 mm 2 mps 750 mmHg 96%
    21:00 +14°C° 1.4 mm 3 mps 750 mmHg 96%
    22:00 +14°C° 1.4 mm 3 mps 750 mmHg 96%
    23:00 +13°C° 1.4 mm 3 mps 750 mmHg 96%

    24 June, Monday

    Time Temperature Precipitation Wind Pressure Humidity
    00:00 +13°C° 2.4 mm 3 mps 750 mmHg 97%
    01:00 +13°C° 2.4 mm 3 mps 750 mmHg 97%
    02:00 +13°C° 2.4 mm 3 mps 750 mmHg 97%
    03:00 +13°C° 0.6 mm 3 mps 750 mmHg 97%
    04:00 +13°C° 0.6 mm 3 mps 750 mmHg 97%
    05:00 +13°C° 0.6 mm 3 mps 750 mmHg 97%
    06:00 +13°C° 0.6 mm 3 mps 750 mmHg 97%
    07:00 +13°C° 0.6 mm 3 mps 751 mmHg 97%
    08:00 +13°C° 0.6 mm 3 mps 751 mmHg 96%
    09:00 +13°C° 0.3 mm 3 mps 751 mmHg 94%
    10:00 +14°C° 0.3 mm 3 mps 751 mmHg 92%
    11:00 +15°C° 0.3 mm 2 mps 752 mmHg 90%
    12:00 +18°C° 0 mm 2 mps 752 mmHg 79%
    13:00 +20°C° 0 mm 3 mps 752 mmHg 67%
    14:00 +22°C° 0 mm 3 mps 752 mmHg 56%
    15:00 +22°C° 0 mm 3 mps 752 mmHg 52%
    16:00 +22°C° 0 mm 3 mps 752 mmHg 48%
    17:00 +24°C° 0 mm 3 mps 752 mmHg 43%
    18:00 +21°C° 0 mm 2 mps 752 mmHg 52%
    19:00 +19°C° 0 mm 2 mps 753 mmHg 61%
    20:00 +19°C° 0 mm 1 mps 753 mmHg 69%
    21:00 +17°C° 0 mm 2 mps 753 mmHg 70%
    22:00 +15°C° 0 mm 2 mps 753 mmHg 71%
    23:00 +14°C° 0 mm 2 mps 753 mmHg 71%
    Show more